Погода в Блясине

Россия / Псковская область     56°56′29″N   28°18′37″E
темп.,
°C
ветер,
м/с
пор.,
м/с
влажн.,
%
обл.,
%
осадки,
мм/ч
давл.,
гПа
погр.,
м
25 мая, ср
ср2500:00+8вюв39680 0.0 1015180
03:00+6вюв35623 0.0 101682
06:00+6юв25653 0.0 1016101
09:00+13юв34465 0.0 1015427
12:00+18юв223637 0.0 10141027
15:00+22ююз13345 0.0 10122413
18:00+21ю2342100 0.0 10111452
21:00+14зюз227750 0.0 101125
26 мая, чт
чт2600:00+12ююв2386100 0.0 100951
03:00+12юв2785100 0.1 1007157
06:00+12ююв2792100 0.4 1004234
09:00+10зсз61295100 6.0 1004757
12:00+11з379163 1.6 1004659
15:00+17зсз485975 3.1 10021861
18:00+16з686819 1.1 10011206
21:00+10з3892100 1.6 1001425
27 мая, пт
пт2700:00+9з4109681 0.4 1001397
03:00+9зюз5119684 0.6 1000603
06:00+9з5994100 0.3 1000936
09:00+9зюз51093100 0.5 1001793
12:00+12зюз697694 0.8 10001267
15:00+14юз6105235 2.1 9992049
18:00+15зюз584753 0.0 9971775
21:00+10юз61182100 0.1 997573
28 мая, сб
сб2800:00+8юз3895100 2.1 995444
03:00+7зюз5995100 4.9 995590
06:00+7зюз3696100 0.3 995465
09:00+7з2692100 0.7 996370
12:00+11з467889 0.9 9971156
15:00+13зюз676893 1.9 9981457
18:00+13зюз477451 0.7 10001216
21:00+9зюз3993100 2.0 1001299
29 мая, вс
вс2900:00+8юз4997100 0.8 1002310
03:00+8юз4997100 0.8 1003460
06:00+8ююз4997100 0.6 1003559
09:00+8юз5997100 3.6 1004671
12:00+9юз4997100 1.4 1006601
15:00+10зюз499180 1.9 1008682
18:00+13з367711 0.9 1009959
21:00+10зюз259115 1.4 1010100